Midland City, AL

11:59 AM CST on December 07, 2016 (GMT -0600)
Fort Rucker / Ozark

Weather History for KHEY - February, 2014

Change the Weather History Date:

Tuesday, February 4, 2014

  Actual Average (KOZR) Record (KOZR)
Temperature  
Mean Temperature 62 °F -  
Max Temperature 73 °F 58 °F 75 °F (2008)
Min Temperature 50 °F 38 °F 23 °F (2009)
Degree Days  
Heating Degree Days 4    
Growing Degree Days 12 (Base 50)    
Moisture  
Dew Point 57 °F    
Average Humidity 93    
Maximum Humidity 100    
Minimum Humidity 73    
Precipitation  
Precipitation 0.02 in - - ()
Sea Level Pressure  
Sea Level Pressure 29.99 in    
Wind  
Wind Speed 5 mph (ESE)    
Max Wind Speed 9 mph    
Max Gust Speed 17 mph    
Visibility 5 miles    
Events Fog    
Averages and records for this station are not official NWS values.
T = Trace of Precipitation, MM = Missing Value Source: NWS Daily Summary

Daily Weather History Graph

Daily Weather History Graph

Search for Another Location

Airport or City:

Trip Planner

Search our weather history database for the weather conditions in past years. The results will help you decide how hot, cold, wet, or windy it might be!

Date:

Astronomy

Feb. 04, 2014 Rise Set
Actual Time 6:33 AM CST 5:20 PM CST
Civil Twilight 6:07 AM CST 5:45 PM CST
Nautical Twilight 5:38 AM CST 6:14 PM CST
Astronomical Twilight 5:10 AM CST 6:43 PM CST
Moon 9:34 AM CST (2/4) 10:48 PM CST (2/4)
Length of Visible Light 11h 37m
Length of Day
10h 47m
Waxing Crescent, 29% of the Moon is Illuminated
Feb 4
Waxing Crescent
Feb 6
First Quarter
Feb 14
Full
Feb 22
Last Quarter
Mar 1
New

Hourly Weather History & Observations

Time (CST) Temp. Dew Point Humidity Pressure Visibility Wind Dir Wind Speed Gust Speed Precip Events Conditions
12:53 AM 50.0 °F 46.0 °F 86% 30.06 in 6.0 mi North 4.6 mph - N/A   Overcast
1:42 AM 50.0 °F 46.4 °F 87% 30.09 in 10.0 mi North 5.8 mph - N/A   Overcast
1:53 AM 50.0 °F 46.0 °F 86% 30.06 in 10.0 mi North 6.9 mph - N/A   Overcast
2:31 AM 50.0 °F 46.4 °F 87% 30.08 in 10.0 mi NNE 5.8 mph - N/A   Overcast
2:53 AM 50.0 °F 46.0 °F 86% 30.04 in 10.0 mi NNE 5.8 mph - N/A   Overcast
3:53 AM 50.0 °F 46.9 °F 89% 30.04 in 10.0 mi NNE 4.6 mph - N/A   Overcast
4:02 AM 50.0 °F 46.4 °F 87% 30.08 in 9.0 mi NNE 4.6 mph - N/A   Overcast
4:35 AM 50.0 °F 48.2 °F 94% 30.08 in 2.5 mi North 5.8 mph - N/A   Overcast
4:53 AM 50.0 °F 48.9 °F 96% 30.05 in 3.0 mi NNE 4.6 mph - N/A   Overcast
5:37 AM 50.0 °F 48.2 °F 94% 30.10 in 2.5 mi NE 4.6 mph - N/A   Overcast
5:53 AM 50.0 °F 48.9 °F 96% 30.07 in 2.5 mi NNE 4.6 mph - N/A   Overcast
6:14 AM 50.0 °F 48.2 °F 94% 30.10 in 3.0 mi NE 4.6 mph - N/A   Overcast
6:27 AM 50.0 °F 48.2 °F 94% 30.10 in 2.5 mi Calm Calm - N/A   Overcast
6:53 AM 50.0 °F 48.9 °F 96% 30.07 in 1.8 mi NNE 3.5 mph - N/A   Overcast
7:22 AM 50.0 °F 50.0 °F 100% 30.11 in 2.0 mi East 3.5 mph - N/A   Overcast
7:30 AM 50.0 °F 50.0 °F 100% 30.11 in 1.5 mi East 4.6 mph - N/A   Overcast
7:53 AM 51.1 °F 50.0 °F 96% 30.08 in 1.2 mi East 4.6 mph - N/A   Overcast
8:19 AM 51.8 °F 51.8 °F 100% 30.12 in 0.8 mi ENE 3.5 mph - N/A   Overcast
8:53 AM 52.0 °F 52.0 °F 100% 30.08 in 0.2 mi East 5.8 mph - N/A Fog Fog
9:18 AM 53.6 °F 51.8 °F 94% 30.11 in 1.8 mi East 5.8 mph - 0.01 in   Overcast
9:25 AM 53.6 °F 53.6 °F 100% 30.11 in 2.0 mi East 5.8 mph - 0.01 in   Overcast
9:32 AM 53.6 °F 53.6 °F 100% 30.11 in 1.8 mi East 4.6 mph - 0.01 in   Overcast
9:53 AM 54.0 °F 54.0 °F 100% 30.08 in 1.5 mi East 4.6 mph - 0.01 in   Overcast
10:43 AM 55.4 °F 55.4 °F 100% 30.09 in 0.8 mi East 4.6 mph - 0.00 in   Overcast
10:53 AM 57.0 °F 55.9 °F 96% 30.05 in 0.5 mi East 3.5 mph - 0.00 in Fog Fog
11:53 AM 60.1 °F 59.0 °F 96% 30.01 in 0.8 mi ESE 4.6 mph - N/A   Mist
12:00 PM 60.8 °F 60.8 °F 100% 30.04 in 2.0 mi ESE 4.6 mph - N/A   Overcast
12:09 PM 62.6 °F 60.8 °F 94% 30.03 in 4.0 mi ESE 3.5 mph - N/A   Overcast
12:50 PM 64.4 °F 62.6 °F 94% 30.01 in 10.0 mi ESE 6.9 mph - N/A   Overcast
12:53 PM 64.9 °F 63.0 °F 93% 29.97 in 10.0 mi ESE 9.2 mph - N/A   Overcast
1:25 PM 68.0 °F 62.6 °F 83% 29.99 in 10.0 mi SE 9.2 mph - N/A   Overcast
1:53 PM 69.1 °F 63.0 °F 81% 29.94 in 10.0 mi SE 6.9 mph - N/A   Overcast
2:27 PM 69.8 °F 62.6 °F 78% 29.98 in 10.0 mi SE 5.8 mph - N/A   Overcast
2:53 PM 71.1 °F 64.0 °F 78% 29.64 in 10.0 mi SSE 5.8 mph - N/A   Overcast
3:49 PM 73.4 °F 64.4 °F 73% 29.97 in 10.0 mi South 4.6 mph - N/A   Mostly Cloudy
3:53 PM 72.0 °F 64.0 °F 76% 29.64 in 10.0 mi South 4.6 mph - N/A   Scattered Clouds
4:53 PM 71.1 °F 63.0 °F 75% 29.65 in 10.0 mi SSE 4.6 mph - N/A   Partly Cloudy
5:53 PM 69.1 °F 63.0 °F 81% 29.93 in 10.0 mi South 3.5 mph - N/A   Clear
6:53 PM 66.0 °F 62.1 °F 87% 29.94 in 10.0 mi South 5.8 mph - N/A   Clear
7:29 PM 64.4 °F 60.8 °F 88% 29.98 in 10.0 mi Variable 6.9 mph - N/A   Mostly Cloudy
7:41 PM 64.4 °F 60.8 °F 88% 29.98 in 10.0 mi South 9.2 mph - N/A   Overcast
7:49 PM 64.4 °F 62.6 °F 94% 29.98 in 10.0 mi South 9.2 mph 17.3 mph N/A   Overcast
7:53 PM 64.0 °F 62.1 °F 93% 29.95 in 10.0 mi South 8.1 mph 17.3 mph N/A   Overcast
8:50 PM 62.6 °F 62.6 °F 100% 29.99 in 3.0 mi South 4.6 mph - N/A   Overcast
8:53 PM 63.0 °F 62.1 °F 97% 29.95 in 2.5 mi South 5.8 mph - N/A   Overcast
9:13 PM 62.6 °F 62.6 °F 100% 29.99 in 1.8 mi Variable 4.6 mph - N/A   Overcast
9:23 PM 62.6 °F 62.6 °F 100% 29.99 in 2.0 mi South 3.5 mph - N/A   Overcast
9:34 PM 62.6 °F 62.6 °F 100% 29.99 in 1.8 mi South 5.8 mph - N/A   Overcast
9:41 PM 62.6 °F 62.6 °F 100% 29.99 in 2.0 mi Variable 5.8 mph - N/A   Overcast
9:51 PM 62.6 °F 62.6 °F 100% 29.98 in 1.8 mi South 6.9 mph - N/A   Overcast
9:53 PM 63.0 °F 63.0 °F 100% 29.94 in 2.0 mi SSE 6.9 mph - N/A   Overcast
10:21 PM 64.4 °F 62.6 °F 94% 29.99 in 4.0 mi South 6.9 mph - N/A   Overcast
10:50 PM 64.4 °F 62.6 °F 94% 29.97 in 2.5 mi South 6.9 mph - 0.01 in   Overcast
10:53 PM 64.0 °F 63.0 °F 96% 29.64 in 2.5 mi Variable 5.8 mph - 0.01 in   Overcast
11:07 PM 64.4 °F 62.6 °F 94% 29.96 in 4.0 mi South 6.9 mph - N/A   Overcast
11:53 PM 64.9 °F 64.0 °F 97% 29.59 in 10.0 mi SSE 8.1 mph - N/A   Overcast